Location: Allisons_Woods
(35.8920°N, 81.8170°W)
Time: 07:58:31
(UTC-04:00)

Daily predictions for brighter satellites

Satellite Brightness Start Highest point End
(mag) Time Altitude Azimuth Time Altitude Azimuth Time Altitude Azimuth
Okean 2 4.2 20:20:31 10° NNE 20:24:19 33° ENE 20:28:04 10° SE
Cosmos 2369 4.1 20:19:05 10° S 20:24:20 40° ESE 20:29:37 10° NE
Cosmos 1633 2.7 20:21:32 10° S 20:25:11 79° W 20:28:51 10° N
Lacrosse 5 rocket 3.2 20:24:20 10° N 20:26:29 15° NE 20:28:35 10° ENE
OE (NEXTSAT) 4.4 20:23:01 10° WNW 20:26:36 86° NNE 20:30:09 10° ESE
Cosmos 1315 Rocket 3.4 20:22:40 10° SSW 20:26:38 65° W 20:30:40 10° N
H-2A R/B 4.0 20:23:57 10° SE 20:27:05 24° ENE 20:30:18 10° NNE
Cosmos 1777 Rocket 4.2 20:22:14 10° N 20:27:25 56° ENE 20:32:34 10° SSE
Meteor 2-21 Rocket 4.5 20:25:32 10° S 20:31:41 70° E 20:37:50 10° NNE
Helios 1A 3.1 20:28:55 10° SSE 20:33:05 85° W 20:37:17 10° NNW
SJ-6B 4.5 20:31:54 10° SSW 20:35:20 35° W 20:38:48 10° NNW
Meteor 1-23 Rocket 4.2 20:30:07 10° N 20:35:46 71° E 20:41:27 10° SSE
NOSS 3-4 (A) 4.1 20:30:31 10° NNW 20:37:27 56° NE 20:44:44 10° SE
NOSS 3-4 (C) 4.1 20:30:38 10° NNW 20:37:34 55° NE 20:44:51 10° SE
Cosmos 2208 Rocket 4.0 20:37:59 10° S 20:43:16 76° ESE 20:48:39 10° NNE
CZ-2D R/B 3.6 20:41:56 10° SSE 20:45:37 45° ENE 20:49:21 10° N
FengYun 1-2 T 4.3 20:40:44 10° SSE 20:46:23 85° ENE 20:52:01 10° NNW
Meteor 2-15 4.4 20:40:41 10° N 20:46:42 65° E 20:52:41 10° SSE
Meteor 2-14 Rocket 4.4 20:41:56 10° S 20:48:04 84° E 20:54:15 10° N
Spot 2 Rocket 4.2 20:43:59 10° S 20:48:59 59° WSW 20:54:01 10° NNW
OAO 2 Rocket 3.4 20:44:26 10° WSW 20:49:22 64° SSE 20:54:03 12° E
Cosmos 1461 3.5 20:45:43 10° NNW 20:49:28 35° NE 20:52:18 15° ESE
Cosmos 1025 Rocket 3.7 20:45:12 10° NNW 20:49:29 57° W 20:53:42 10° S
Hubble Space Telescope 2.5 20:47:29 10° WSW 20:50:41 21° SSW 20:53:43 11° SE
Meteor 2-15 Rocket 4.5 20:46:24 10° N 20:52:25 61° E 20:58:23 10° SSE
Cosmos 1892 Rocket 3.6 20:47:56 10° N 20:52:27 89° ESE 20:56:55 10° S
Cosmos 2123 Rocket 4.0 20:46:32 10° N 20:52:38 59° E 20:58:42 10° SSE
Cosmos 1626 Rocket 4.5 20:48:55 10° NNE 20:52:43 28° ENE 20:55:45 14° SE
Cosmos 1455 Rocket 2.9 20:49:55 10° S 20:54:13 80° E 20:58:34 10° N
FENGYUN 3A 3.6 20:49:04 10° SSE 20:54:22 68° ENE 20:59:41 10° N
Cosmos 1656 4.0 20:53:08 10° S 20:58:26 44° ESE 21:03:41 10° NE
Resurs 1-3 4.3 20:54:39 10° S 20:58:57 56° W 21:03:16 10° NNW
Cosmos 1570 Rocket 4.4 20:53:51 10° SSW 20:59:07 70° WNW 21:04:25 10° NNE
Cosmos 2227 Rocket 2.4 20:53:56 10° NNW 20:59:29 55° ENE 21:04:23 13° SE
Envisat 4.4 20:57:13 15° ESE 20:59:40 21° ENE 21:03:23 10° NNE
CZ-4B DEB 3.3 20:57:57 10° S 21:01:11 63° W 21:04:27 10° NNW
Cosmos 1602 Rocket 4.2 20:57:31 10° NNE 21:01:39 36° E 21:04:39 16° SE
Cosmos 1500 4.2 21:02:27 19° SE 21:04:08 26° E 21:07:17 10° NNE
Cosmos 1346 Rocket 2.7 21:01:14 10° N 21:05:12 86° E 21:09:12 10° S
ALOS 2.4 21:04:38 10° S 21:09:17 79° WSW 21:14:00 10° NNW
Iridium 4 Rocket 3.7 21:06:19 10° NNE 21:11:05 43° E 21:14:17 17° SSE
Cosmos 2082 3.7 21:08:09 10° NNW 21:13:46 68° ENE 21:18:05 17° SSE
Cosmos 2297 Rocket 2.4 21:09:26 10° NNW 21:14:58 53° ENE 21:18:31 22° SE
Cosmos 1153 Rocket 4.4 21:12:21 10° S 21:18:27 65° E 21:24:33 10° NNE
Resurs 01 Rocket 3.9 21:14:57 10° SSW 21:18:35 25° W 21:22:16 10° NW
Cosmos 220 Rocket 4.3 21:15:08 10° N 21:19:12 45° ENE 21:20:50 29° ESE
RESURS DK-1 4.2 21:18:21 10° NNE 21:21:00 16° ENE 21:21:23 16° ENE
CZ-3C R/B 3.9 20:23:41 10° W 21:21:44 43° SSW 21:28:19 19° SE
USA 186 2.3 21:21:26 12° S 21:24:20 57° W 21:27:22 10° NNW
BREEZE-M DEB (TANK) 4.4 21:05:55 10° SW 21:27:21 89° SSE 21:32:34 10° ENE
DELTA 2 R/B (1) 3.7 21:22:24 10° WNW 21:27:58 69° NNE 21:31:01 27° E
Delta 2 Rocket 4.2 21:22:51 10° W 21:28:25 59° SSW 21:30:45 31° SE
Cosmos 1515 3.8 21:26:08 10° N 21:29:54 53° E 21:30:47 42° SE
ERS-1 Rocket 3.1 21:27:56 27° SE 21:30:27 55° ENE 21:35:22 10° N
Cosmos 1447 Rocket 4.5 21:26:22 10° N 21:32:41 72° E 21:37:43 17° SSE
Cosmos 1802 Rocket 4.4 21:29:35 23° SE 21:32:59 41° E 21:38:55 10° NNE
Cosmos 1743 3.6 21:40:01 33° ENE 21:40:01 33° ENE 21:42:46 10° NNE
OTV 4 0.8 21:38:33 10° W 21:41:08 57° WSW 21:41:08 57° WSW
Cosmos 1898 Rocket 3.6 21:36:42 10° N 21:41:55 55° ENE 21:43:26 41° ESE
Cosmos 1763 Rocket 4.2 21:43:23 32° ENE 21:43:23 32° ENE 21:46:59 10° NE
Lacrosse 5 2.9 21:42:30 10° NNW 21:47:02 32° NE 21:48:07 29° ENE
Tiangong 1 2.9 21:45:04 10° NW 21:47:37 23° N 21:47:55 22° NNE
Cosmos 1066 Rocket 4.2 21:42:45 10° N 21:48:25 70° E 21:50:49 36° SSE
Cosmos 2016 Rocket 4.2 21:47:10 37° SE 21:48:41 44° E 21:54:29 10° NNE
Cosmos 1697 Rocket 2.6 21:43:53 10° SSW 21:49:32 89° WNW 21:55:13 10° NNE
SPOT 5 3.4 21:50:56 40° E 21:51:14 40° ENE 21:55:48 10° N
Cosmos 1975 4.3 21:49:52 10° SSW 21:53:42 39° W 21:57:34 10° N
Cosmos 468 Rocket 4.1 21:51:16 10° SSW 21:56:23 75° WNW 22:01:32 10° NNE
Cosmos 2173 Rocket 3.9 21:56:18 18° S 22:01:13 81° E 22:07:35 10° N
Cosmos 841 Rocket 4.1 22:05:14 40° ENE 22:05:14 40° ENE 22:08:57 10° NNE
Cosmos 1814 Rocket 4.2 22:00:22 10° SSW 22:05:42 75° WNW 22:11:02 10° NNE
Lacrosse 5 rocket 1.7 22:02:26 10° NW 22:05:31 51° W 22:05:31 51° W
Cosmos 972 Rocket 4.4 22:04:14 10° NNW 22:10:17 80° ENE 22:12:04 51° SSE
ARGOS 4.1 22:12:12 33° NE 22:12:12 33° NE 22:16:21 10° N
Cosmos 1980 Rocket 2.0 22:06:27 10° SSW 22:12:06 84° ESE 22:17:49 10° NNE
Cosmos 1825 Rocket 3.8 22:08:46 10° N 22:12:29 60° NNE 22:12:29 60° NNE
Cosmos 2100 Rocket 4.1 22:07:11 11° SSW 22:13:17 73° W 22:19:32 10° N
Cosmos 2061 Rocket 4.1 22:12:27 18° SSW 22:17:16 76° W 22:23:34 10° N
H-2A R/B 2.6 22:23:38 53° NW 22:23:38 53° NW 22:26:55 10° NNW
Cosmos 1953 Rocket 4.4 22:18:22 10° N 22:21:30 44° NNE 22:21:30 44° NNE
Tsikada Rocket 4.4 22:17:45 10° N 22:23:28 46° ENE 22:23:28 46° ENE
Terra 4.1 22:28:05 13° NE 22:28:05 13° NE 22:29:00 10° NNE
Cosmos 1939 Rocket 4.1 22:26:46 37° WSW 22:26:56 37° W 22:30:49 10° NNW
MetOp-B 4.0 22:28:30 80° NE 22:28:30 80° NE 22:33:40 10° N
Milstar 3 Cent rocket 4.0 22:11:27 10° W 22:31:03 59° SSW 22:34:14 47° SE
OAO 2 Rocket 3.8 22:29:02 10° W 22:33:00 55° W 22:33:00 55° W
Envisat 4.0 22:37:25 36° SW 22:38:21 40° W 22:43:08 10° NNW
ASTEX 1 3.8 22:34:52 10° N 22:39:19 63° NW 22:39:19 63° NW
Meteor 1-21 4.4 22:37:01 10° NNW 22:42:46 71° W 22:42:53 71° WSW
Cosmos 2263 Rocket 4.1 22:39:18 10° N 22:41:51 18° NE 22:41:51 18° NE
Cosmos 2322 Rocket 4.0 22:48:05 20° NE 22:48:05 20° NE 22:49:44 10° NNE
H-2A R/B 3.7 22:48:51 23° NNE 22:48:51 23° NNE 22:51:01 10° N
Cosmos 1937 Rocket 4.2 22:41:38 10° NNW 22:46:32 50° W 22:46:32 50° W
Cosmos 1725 Rocket 3.9 22:47:52 80° N 22:47:52 80° N 22:53:44 10° N
Cosmos 2297 Rocket 4.3 22:54:47 10° WNW 22:58:30 18° W 23:00:22 16° WSW
Cosmos 2098 Rocket 4.4 22:58:17 57° SW 22:59:23 65° W 23:05:30 10° N
Lacrosse 5 4.0 23:25:21 10° NW 23:27:19 22° WNW 23:27:19 22° WNW
SL-16 R/B 4.0 23:42:47 27° N 23:42:47 27° N 23:45:27 10° N
USA 215 4.0 23:47:44 49° NNW 23:47:44 49° NNW 23:52:23 10° NW
